DW9840 Weather Reports


Display with metric or nautical units.
time (UTC)temp
F
wind
direction
speed
MPH
gust
MPH
rain 1hr
in
rain 24hr
in
rain mn
in
humidity
%
barometer
mb
20260904123019 0 0.0 0.0 0.00 0.30 0.00 1011.7
20260904121505 0 0.0 0.0 0.00 0.30 0.00 1011.7
20260904120112 0 0.0 0.0 0.00 0.30 0.00 1011.7
20260904114539 0 0.0 0.0 0.00 0.30 0.00 1011.6
20260904113038 0 0.0 0.0 0.00 0.30 0.00 1011.6
20260904111513 54 127 0.0 0.0 0.00 0.30 0.00 3 1011.7
20260904110009 54 127 0.0 0.0 0.00 0.30 0.00 3 1011.5
20260904104548 54 127 0.0 0.0 0.00 0.30 0.00 3 1011.4
20260904103043 55 127 0.0 0.0 0.00 0.30 0.00 3 1011.4
20260904101522 55 127 0.0 0.0 0.00 0.30 0.00 3 1011.4
20260904100018 55 129 0.0 0.0 0.00 0.30 0.00 3 1011.4
20260904094601 55 129 0.0 0.0 0.00 0.30 0.00 3 1011.4
20260904093056 56 129 0.0 0.0 0.00 0.30 0.00 3 1011.2
20260904091554 56 127 0.0 0.0 0.00 0.30 0.00 3 1011.3
20260904090051 56 129 0.0 0.0 0.00 0.30 0.00 3 1011.3
20260904084543 57 130 0.0 0.0 0.00 0.30 0.00 3 1011.4
20260904083038 57 132 0.0 0.0 0.00 0.30 0.00 3 1011.4
20260904081546 58 129 0.0 0.0 0.00 0.30 0.00 3 1011.3
20260904080030 58 133 0.0 0.0 0.00 0.30 0.00 3 1011.3
20260904074508 58 124 0.0 0.0 0.00 0.30 0.00 3 1011.2
20260904073005 58 132 0.0 0.0 0.00 0.30 0.00 3 1011.1
20260904071547 59 211 0.0 0.0 0.00 0.30 0.00 3 1011.1
20260904070043 59 141 0.0 0.0 0.00 0.30 0.00 3 1011.0
20260904064538 60 124 0.0 0.0 0.00 0.30 0.30 3 1011.1
20260904063039 60 124 0.0 0.0 0.00 0.30 0.30 3 1011.1
20260904061540 60 141 0.0 0.0 0.00 0.30 0.30 3 1011.0
20260904060026 61 201 0.0 0.0 0.00 0.30 0.30 3 1011.2
20260904054523 61 200 0.0 0.0 0.00 0.30 0.30 3 1011.2
20260904053016 62 214 0.0 0.0 0.00 0.30 0.30 3 1011.3
20260904051601 62 214 0.0 0.0 0.00 0.30 0.30 3 1011.2
20260904050050 62 194 0.0 0.0 0.00 0.30 0.30 3 1011.3
20260904044537 62 110 0.0 0.0 0.00 0.30 0.30 3 1011.4
20260904043032 62 117 0.0 0.0 0.00 0.30 0.30 3 1011.3
20260904041503 62 217 0.0 0.0 0.00 0.30 0.30 3 1011.3
20260904040058 63 217 0.0 0.0 0.00 0.30 0.30 3 1011.2
20260904034538 63 191 0.0 0.0 0.00 0.30 0.30 3 1011.2
20260904033035 63 218 0.0 0.0 0.00 0.30 0.30 3 1011.1
20260904031529 63 166 0.0 0.0 0.00 0.30 0.30 3 1010.9
20260904030025 64 198 0.0 0.0 0.00 0.30 0.30 3 1010.9
20260904024520 64 222 0.0 0.0 0.00 0.30 0.30 3 1010.9
20260904023017 64 203 0.0 0.0 0.00 0.30 0.30 3 1010.9
20260904021521 65 203 0.0 0.0 0.00 0.30 0.30 3 1011.0
20260904020009 65 194 0.0 0.0 0.00 0.30 0.30 3 1011.2
20260904014506 65 146 0.0 0.0 0.00 0.30 0.30 3 1011.3
20260904013105 65 146 0.0 0.0 0.00 0.30 0.30 3 1011.3
20260904011503 65 172 0.0 0.0 0.01 0.30 0.30 3 1011.4
20260904010058 65 143 0.0 0.0 0.01 0.30 0.30 3 1011.5
20260904004554 65 118 0.0 0.0 0.03 0.30 0.30 3 1011.4
20260904003049 65 153 0.0 0.0 0.08 0.30 0.30 3 1011.6
20260904001522 65 186 0.0 0.0 0.09 0.28 0.28 3 1011.8
20260904000019 65 153 0.0 0.0 0.11 0.28 0.28 3 1012.0
20260903234557 66 273 0.0 0.0 0.10 0.27 0.27 3 1012.1
20260903233052 67 281 0.0 0.0 0.06 0.23 0.23 3 1012.2
20260903231531 69 247 0.0 0.0 0.02 0.19 0.19 3 1012.2
20260903230030 69 176 0.0 0.0 0.01 0.18 0.18 3 1012.2
20260903224513 69 211 0.0 0.0 0.00 0.17 0.17 3 1012.3
20260903223100 69 212 0.0 0.0 0.00 0.17 0.17 3 1012.5
20260903221539 69 149 0.0 2.0 0.00 0.17 0.17 31 1012.5
20260903220038 70 273 0.0 0.0 0.00 0.17 0.17 47 1012.3
20260903214514 71 256 0.0 0.0 0.00 0.17 0.17 49 1012.2
20260903213009 70 276 0.0 0.0 0.00 0.17 0.17 48 1012.2
20260903211559 71 285 0.0 0.0 0.00 0.17 0.17 44 1012.2
20260903210053 72 225 0.0 1.0 0.00 0.17 0.17 32 1012.3
20260903204545 71 166 0.0 4.0 0.00 0.17 0.17 27 1012.3
20260903203042 73 233 0.0 4.0 0.00 0.17 0.17 3 1012.4
20260903201536 73 174 0.0 5.0 0.00 0.17 0.17 3 1012.6
20260903200031 72 190 0.0 3.0 0.00 0.17 0.17 3 1012.7
20260903194526 68 219 0.0 5.0 0.00 0.17 0.17 3 1012.9
20260903193024 66 233 0.0 1.0 0.00 0.17 0.17 3 1013.1
20260903191508 65 208 0.0 2.0 0.02 0.17 0.17 3 1013.3
20260903190005 64 210 0.0 3.0 0.04 0.17 0.17 3 1013.4
20260903184555 64 281 0.0 1.0 0.09 0.17 0.17 3 1013.4
20260903183045 64 247 0.0 1.0 0.11 0.17 0.17 3 1013.4
20260903181522 64 176 0.0 2.0 0.10 0.15 0.15 3 1013.5
20260903180018 64 233 0.0 2.0 0.09 0.13 0.13 3 1013.3
20260903174555 64 127 0.0 2.0 0.05 0.08 0.08 3 1013.2
20260903173051 64 134 0.0 3.0 0.03 0.06 0.06 3 1013.2
20260903171533 64 124 0.0 3.0 0.03 0.05 0.05 3 1013.2
20260903170037 64 169 0.0 4.0 0.02 0.04 0.04 3 1013.2
20260903164512 64 243 0.0 3.0 0.02 0.03 0.03 3 1013.2
20260903163008 65 197 0.0 2.0 0.03 0.03 0.03 3 1013.2
20260903161604 65 200 0.0 1.0 0.02 0.02 0.02 3 1013.3
20260903160042 65 212 0.0 1.0 0.02 0.02 0.02 3 1013.4
20260903154538 66 200 0.0 0.0 0.01 0.03 0.01 3 1013.4
20260903153021 66 200 0.0 2.0 0.00 0.02 0.00 3 1013.6
20260903151517 67 135 0.0 0.0 0.00 0.02 0.00 3 1013.6
20260903150016 0 0.0 0.0 0.00 0.02 0.00 1013.4
20260903144509 0 0.0 0.0 0.00 0.02 0.00 1013.4
20260903143007 0 0.0 0.0 0.00 0.02 0.00 1013.2
20260903141600 0 0.0 0.0 0.00 0.02 0.00 1013.1
20260903140056 0 0.0 0.0 0.00 0.02 0.00 1013.2
20260903134551 0 0.0 0.0 0.00 0.02 0.00 1013.1
20260903133031 0 0.0 0.0 0.00 0.02 0.00 1013.2
20260903131527 0 0.0 0.0 0.00 0.02 0.00 1013.2
20260903130005 0 0.0 0.0 0.00 0.02 0.00 1013.3
20260903124601 0 0.0 0.0 0.00 0.02 0.00 1013.4